Location: Saint-Hippolyte
(43.6394°N, 4.7559°E)
Time: 16:08:46
(UTC+00:00)

GEOS 3 Rocket - Pass Details

Date: 24 October 2020
Orbit: 770 x 850 km, 115.0° (Epoch: 23 November)

Event Time Altitude Azimuth Distance (km) Brightness Sun altitude
Exits shadow 18:36:45 29° 143° (SE) 1,477 4.6 -21.2°
Maximum altitude 18:39:35 88° 233° (SW) 842 3.6 -21.8°
Drops below altitude 10° 18:45:00 10° 323° (NW) 2,471 6.7 -22.7°
Sets 18:47:20 0° 323° (NW) 3,415 7.5 -23.2°
